GW5963 Weather Reports


Display with metric or nautical units.
time (UTC)temp
F
wind
direction
speed
MPH
gust
MPH
rain 1hr
in
rain 24hr
in
rain mn
in
humidity
%
barometer
mb
20260504000020 57 84 0.0 0.0 0.04 0.39 0.04 95 1011.2
20260503235520 57 85 0.0 0.0 0.04 0.39 0.04 95 1011.2
20260503235021 57 85 0.0 0.0 0.04 0.39 0.04 95 1011.2
20260503234522 57 85 0.0 0.0 0.04 0.39 0.04 95 1011.3
20260503234033 57 85 0.0 0.0 0.04 0.39 0.04 95 1011.4
20260503233521 57 79 0.0 0.0 0.04 0.39 0.04 95 1011.5
20260503233020 57 79 0.0 0.0 0.01 0.35 0.01 95 1011.9
20260503232520 57 79 0.0 0.0 0.00 0.35 0.00 95 1012.0
20260503232031 57 79 0.0 0.0 0.00 0.35 0.00 94 1011.9
20260503231521 57 79 0.0 0.0 0.00 0.35 0.00 95 1011.9
20260503231021 58 283 0.0 1.0 0.00 0.35 0.00 95 1011.9
20260503230520 58 283 0.0 1.0 0.00 0.35 0.00 95 1012.0
20260503230020 58 283 0.0 1.0 0.00 0.35 0.00 94 1012.0
20260503225520 58 283 0.0 1.0 0.00 0.35 0.00 94 1011.9
20260503225031 58 125 0.0 2.0 0.00 0.35 0.00 94 1011.9
20260503224521 58 125 0.0 2.0 0.01 0.35 0.00 94 1011.9
20260503223521 58 121 0.0 0.0 0.05 0.35 0.00 94 1012.0
20260503223021 58 121 0.0 0.0 0.09 0.35 0.00 94 1012.2
20260503222531 58 121 0.0 0.0 0.09 0.35 0.00 94 1012.2
20260503222020 58 239 0.0 0.0 0.09 0.35 0.00 94 1012.1
20260503221521 58 239 0.0 0.0 0.10 0.35 0.00 94 1012.3
20260503221021 58 120 0.0 0.0 0.12 0.35 0.00 94 1012.1
20260503220521 58 120 0.0 1.0 0.12 0.35 0.00 94 1012.2
20260503220020 58 120 0.0 1.0 0.13 0.35 0.00 94 1012.3
20260503215532 59 124 0.0 0.0 0.17 0.35 0.35 94 1012.3
20260503215032 59 114 0.0 0.0 0.20 0.35 0.35 94 1012.3
20260503214521 59 114 0.0 0.0 0.20 0.34 0.34 94 1012.3
20260503214020 59 115 0.0 0.0 0.17 0.31 0.31 94 1012.5
20260503213521 59 114 0.0 0.0 0.18 0.30 0.30 94 1012.6
20260503213032 59 259 0.0 0.0 0.17 0.26 0.26 94 1012.7
20260503212521 59 127 0.0 0.0 0.18 0.25 0.25 94 1012.7
20260503212021 59 127 0.0 0.0 0.19 0.24 0.24 94 1012.7
20260503211522 59 126 0.0 0.0 0.20 0.24 0.24 94 1012.7
20260503211021 59 126 0.0 0.0 0.20 0.23 0.23 94 1012.6
20260503210532 59 120 0.0 0.0 0.20 0.23 0.23 94 1012.6
20260503210033 59 120 0.0 1.0 0.20 0.20 0.20 94 1012.7
20260503205521 59 120 0.0 1.0 0.17 0.18 0.17 93 1012.7
20260503205032 59 79 0.0 1.0 0.14 0.16 0.15 93 1012.7
20260503204021 60 87 1.0 4.0 0.13 0.14 0.13 93 1012.7
20260503203521 60 113 0.0 2.0 0.10 0.12 0.11 93 1012.7
20260503203023 60 152 0.0 1.0 0.08 0.09 0.09 93 1012.8
20260503202521 60 274 0.0 1.0 0.06 0.07 0.06 93 1012.4
20260503202021 60 274 0.0 3.0 0.05 0.06 0.06 93 1012.4
20260503201520 60 286 2.0 3.0 0.02 0.03 0.02 92 1012.4
20260503201021 60 276 1.0 2.0 0.02 0.03 0.02 92 1012.2
20260503200521 60 112 0.0 0.0 0.02 0.03 0.02 92 1011.9
20260503200021 60 112 0.0 0.0 0.00 0.02 0.01 92 1011.9
20260503195522 60 113 0.0 0.0 0.00 0.02 0.01 92 1011.7
20260503195021 60 113 0.0 0.0 0.00 0.02 0.01 91 1011.6
20260503194522 60 112 0.0 0.0 0.00 0.02 0.01 91 1011.6
20260503194022 60 112 0.0 0.0 0.00 0.02 0.01 91 1011.6
20260503193521 60 108 0.0 0.0 0.00 0.02 0.01 91 1011.5
20260503193021 60 108 0.0 0.0 0.00 0.02 0.01 91 1011.6
20260503192522 60 108 0.0 0.0 0.00 0.02 0.01 91 1011.6
20260503192021 60 108 0.0 0.0 0.00 0.02 0.01 91 1011.5
20260503191522 60 108 0.0 0.0 0.00 0.02 0.01 91 1011.4
20260503191021 60 108 0.0 0.0 0.00 0.02 0.01 90 1011.4
20260503190521 60 108 0.0 0.0 0.00 0.02 0.01 90 1011.4
20260503190025 60 110 0.0 0.0 0.00 0.02 0.01 90 1011.3
20260503185521 60 110 0.0 0.0 0.00 0.03 0.01 90 1011.3
20260503185020 61 110 0.0 0.0 0.00 0.03 0.01 90 1011.2
20260503184521 61 110 0.0 0.0 0.00 0.03 0.01 90 1011.2
20260503184023 61 110 0.0 0.0 0.00 0.03 0.01 89 1011.1
20260503183522 61 110 0.0 0.0 0.00 0.03 0.01 89 1011.1
20260503183022 61 110 0.0 0.0 0.00 0.03 0.01 89 1011.0
20260503182532 61 110 0.0 0.0 0.00 0.03 0.01 89 1011.1
20260503182021 61 110 0.0 0.0 0.00 0.03 0.01 89 1011.0
20260503181521 61 110 0.0 0.0 0.00 0.03 0.01 89 1010.9
20260503181022 61 110 0.0 0.0 0.00 0.03 0.01 89 1011.0
20260503180522 61 93 0.0 0.0 0.00 0.03 0.01 89 1010.9
20260503180021 61 91 0.0 0.0 0.00 0.03 0.01 89 1010.9
20260503175532 62 121 0.0 0.0 0.00 0.05 0.01 89 1010.9
20260503175021 62 113 0.0 1.0 0.00 0.05 0.01 90 1011.0
20260503174521 61 113 0.0 1.0 0.00 0.05 0.01 89 1010.9
20260503174023 62 111 0.0 1.0 0.00 0.05 0.01 90 1010.9
20260503173533 62 113 0.0 0.0 0.00 0.05 0.01 90 1011.0
20260503173032 62 124 0.0 0.0 0.00 0.05 0.01 89 1011.0
20260503172521 62 124 0.0 0.0 0.00 0.05 0.01 89 1011.1
20260503172022 62 155 0.0 0.0 0.00 0.05 0.01 89 1011.0
20260503171522 62 155 0.0 0.0 0.00 0.05 0.01 89 1010.9
20260503171022 62 165 0.0 1.0 0.00 0.05 0.01 89 1010.9
20260503170522 62 125 0.0 1.0 0.00 0.05 0.01 88 1010.9
20260503150526 66 19 0.0 4.0 0.01 0.09 0.01 83 1011.4
20260503131015 69 124 0.0 4.0 0.00 0.20 0.00 76 1012.4
20260503130516 70 118 1.0 3.0 0.00 0.20 0.00 74 1012.3
20260503110516 71 119 2.0 4.0 0.00 0.21 0.00 74 1013.3
20260503081515 63 97 0.0 1.0 0.00 0.22 0.00 95 1014.0
20260503081015 63 86 0.0 1.0 0.00 0.22 0.00 95 1014.0
20260503080515 62 82 0.0 1.0 0.00 0.22 0.00 95 1014.0
20260503072515 59 77 0.0 0.0 0.00 0.22 0.00 96 1013.9
20260503072015 58 77 0.0 0.0 0.00 0.22 0.00 96 1013.9
20260503071527 58 77 0.0 0.0 0.00 0.22 0.00 96 1013.9
20260503071016 57 77 0.0 0.0 0.00 0.22 0.00 96 1013.9
20260503070515 57 77 0.0 0.0 0.00 0.22 0.00 96 1013.8
20260503055015 50 77 0.0 0.0 0.00 0.22 0.00 96 1013.4
20260503054516 50 77 0.0 0.0 0.00 0.22 0.00 96 1013.4
20260503054016 50 77 0.0 0.0 0.00 0.22 0.00 96 1013.3
20260503053516 50 77 0.0 0.0 0.00 0.22 0.00 96 1013.3
20260503053017 49 77 0.0 0.0 0.00 0.22 0.00 96 1013.3
20260503052516 49 77 0.0 0.0 0.00 0.22 0.00 96 1013.3
20260503052016 49 77 0.0 0.0 0.00 0.22 0.00 96 1013.3
20260503051516 49 77 0.0 0.0 0.00 0.22 0.00 96 1013.3
20260503051015 49 77 0.0 0.0 0.00 0.22 0.00 96 1013.2
20260503050516 49 77 0.0 0.0 0.00 0.22 0.00 96 1013.2
20260503050027 48 77 0.0 0.0 0.00 0.22 0.00 96 1013.2
20260503045516 48 77 0.0 0.0 0.00 0.22 0.00 96 1013.2
20260503045027 48 77 0.0 0.0 0.00 0.22 0.00 96 1013.1
20260503044515 48 77 0.0 0.0 0.00 0.22 0.00 96 1013.1
20260503044016 48 77 0.0 0.0 0.00 0.22 0.00 96 1013.1
20260503043516 48 77 0.0 0.0 0.00 0.22 0.00 95 1013.1
20260503043015 48 77 0.0 0.0 0.00 0.22 0.00 96 1013.1
20260503042516 48 77 0.0 0.0 0.00 0.22 0.00 95 1013.1
20260503042016 48 77 0.0 0.0 0.00 0.22 0.00 95 1013.2
20260503041514 48 77 0.0 0.0 0.00 0.22 0.00 95 1013.1
20260503041016 48 77 0.0 0.0 0.00 0.22 0.00 95 1013.2
20260503040527 48 77 0.0 0.0 0.00 0.22 0.00 95 1013.2
20260503040016 49 77 0.0 0.0 0.00 0.22 0.00 95 1013.2
20260503035515 49 77 0.0 0.0 0.00 0.22 0.00 95 1013.2
20260503035016 49 77 0.0 0.0 0.00 0.22 0.00 95 1013.2
20260503034516 49 77 0.0 0.0 0.00 0.22 0.00 95 1013.2
20260503034027 49 77 0.0 0.0 0.00 0.22 0.00 95 1013.3
20260503033516 50 77 0.0 0.0 0.00 0.22 0.00 95 1013.3
20260503033015 50 77 0.0 0.0 0.00 0.22 0.00 96 1013.4
20260503032516 49 77 0.0 0.0 0.00 0.22 0.00 95 1013.4
20260503032016 50 77 0.0 0.0 0.00 0.22 0.00 95 1013.4
20260503031527 50 77 0.0 0.0 0.00 0.22 0.00 95 1013.3
20260503031016 50 77 0.0 0.0 0.00 0.22 0.00 95 1013.4
20260503030516 50 77 0.0 0.0 0.00 0.22 0.00 95 1013.4
20260503030016 50 77 0.0 0.0 0.00 0.22 0.00 95 1013.4
20260503025516 50 77 0.0 0.0 0.00 0.22 0.00 95 1013.4
20260503025015 50 77 0.0 0.0 0.00 0.22 0.00 95 1013.4
20260503024516 50 77 0.0 0.0 0.00 0.22 0.00 95 1013.4
20260503024015 51 77 0.0 0.0 0.00 0.22 0.00 95 1013.4
20260503023515 51 77 0.0 0.0 0.00 0.22 0.00 95 1013.3
20260503023015 51 77 0.0 0.0 0.00 0.22 0.00 95 1013.4
20260503022514 51 77 0.0 0.0 0.00 0.22 0.00 95 1013.4
20260503021516 51 77 0.0 0.0 0.00 0.22 0.00 95 1013.4
20260503021027 52 77 0.0 0.0 0.00 0.22 0.00 95 1013.4
20260503020537 52 77 0.0 0.0 0.00 0.22 0.00 95 1013.5
20260503020016 53 77 0.0 0.0 0.00 0.22 0.00 95 1013.3
20260503015515 53 77 0.0 0.0 0.00 0.22 0.00 95 1013.3
20260503015015 53 77 0.0 0.0 0.00 0.22 0.00 95 1013.4
20260503014515 53 77 0.0 0.0 0.00 0.22 0.00 95 1013.5
20260503014016 53 77 0.0 0.0 0.00 0.22 0.00 95 1013.6
20260503013526 54 77 0.0 0.0 0.00 0.22 0.00 95 1013.5
20260503013027 54 77 0.0 0.0 0.00 0.22 0.00 95 1013.6
20260503012514 54 77 0.0 0.0 0.00 0.22 0.00 95 1013.6
20260503012016 54 77 0.0 0.0 0.00 0.22 0.00 95 1013.6
20260503011527 55 77 0.0 0.0 0.00 0.22 0.00 95 1013.5
20260503011015 55 77 0.0 0.0 0.00 0.22 0.00 95 1013.5
20260503010516 55 77 0.0 0.0 0.00 0.22 0.00 95 1013.6
20260503010014 55 77 0.0 0.0 0.00 0.22 0.00 95 1013.6
20260503005515 55 77 0.0 0.0 0.00 0.22 0.00 95 1013.6
20260503005015 55 77 0.0 0.0 0.00 0.22 0.00 95 1013.7
20260503004525 55 77 0.0 0.0 0.00 0.22 0.00 95 1013.8
20260503004026 55 77 0.0 0.0 0.00 0.22 0.00 95 1013.8
20260503003526 55 77 0.0 0.0 0.00 0.22 0.00 95 1013.9
20260503003014 55 77 0.0 0.0 0.00 0.22 0.00 95 1014.0
20260503002515 55 77 0.0 0.0 0.00 0.22 0.00 95 1014.0
20260503002027 55 77 0.0 0.0 0.00 0.22 0.00 95 1014.0
20260503001516 55 77 0.0 0.0 0.00 0.22 0.00 95 1014.0
20260503001016 55 77 0.0 0.0 0.00 0.22 0.00 95 1014.1
20260503000526 55 77 0.0 0.0 0.00 0.22 0.00 95 1014.2